Location: Street
(51.1247°N, 2.7429°W)
Time: 02:38:23
(UTC+00:00)

deb Explorer IX - Pass Details

Date: 04 December 2020
Orbit: 536 x 1104 km, 38.8° (Epoch: 20 January)

Event Time Altitude Azimuth Distance (km) Brightness Sun altitude
Rises 18:02:56 0° 258° (WSW) 3,612 ? -17.5°
Reaches altitude 10° 18:06:24 10° 242° (WSW) 2,555 ? -18.0°
Maximum altitude 18:10:33 19° 199° (SSW) 1,837 ? -18.6°
Drops below altitude 10° 18:14:19 10° 154° (SSE) 2,269 ? -19.2°
Enters shadow 18:15:30 - 145° (SE) 2,579 ? -19.4°
Sets 18:17:11 0° 136° (SE) 3,082 - -19.6°
